Zurück zum Katalog

FENGYUN 1C DEB

AktivSSO
NORAD 33731·DEBRIS·🇨🇳 China

Gestartet May 10, 1999 von Taiyuan Satellite Launch Center

Loading…

Nächste Überflüge (nächste 24 Stunden)

TLE

AktuellSource: Space-Track

Epoche: Sep 14, 2026, 13:05 UTC

1 33731U 99025DHU 26257.54523897  .00000972  00000-0  68861-3 0  9997
2 33731  99.4288 291.4645 0128386  27.9249 332.8725 13.96393080942974

Verfolge FENGYUN 1C DEB in Echtzeit mit AllMySat

Download on the App Store